Home   Weather   Kulmbach   Past weeks

Flag for Germany Past Weather in Kulmbach, Bavaria, Germany — Yesterday and Last 2 Weeks

Now
43 °F

Passing clouds.


Feels Like: 43 °F
Forecast: 46 / 70 °F
Wind: No wind

Location: Grafenwoehr

Current Time: Sep 26, 2016 at 2:18:56 AM

Latest Report: Sep 26, 2016 at 1:58 AM


Visibility: N/A

Pressure: 30.16 "Hg

Humidity: 100%

Dew Point: 43 °F

Location of KulmbachLocation

Past Weather in Kulmbach — Graph

°F

Kulmbach Temperature Yesterday

Maximum temperature yesterday: 70 °F (at 1:58 PM)
Minimum temperature yesterday: 37 °F (at 6:58 AM)
Average temperature yesterday: 53 °F

High & Low Weather Summary for the Past Weeks

 TemperatureHumidityPressure
High88 °F (Sep 12, 2:58 PM)100% (Sep 17, 7:58 AM)30.37 "Hg (Sep 17, 7:58 AM)
Low36 °F (Sep 21, 7:58 AM)25% (Sep 13, 4:58 PM)29.81 "Hg (Sep 17, 4:58 PM)
Average58 °F79%30.04 "Hg
* Reported Sep 11 12:58 AM — Sep 26 12:58 AM, Kulmbach, Weather by CustomWeather, © 2016

Note: Actual official high and low records may vary slightly from our data, if they occured in-between our weather recording intervals... More about our weather records

Advertising

Kulmbach Weather History for the Previous 24 Hours

Scroll right to see more
 ConditionsComfort  
Time TempWeatherWind HumidityBarometerVisibility
12:58 AM
Mon, Sep 26
45 °FPassing clouds.No wind93%30.15 "HgN/A
11:58 PM
Sun, Sep 25
46 °FPassing clouds.No wind93%30.15 "HgN/A
10:58 PM48 °FPassing clouds.No wind94%30.15 "HgN/A
9:58 PM50 °FOvercast.No wind94%30.15 "HgN/A
8:58 PM52 °FOvercast.No wind94%30.16 "HgN/A
7:58 PM55 °FClear.No wind82%30.16 "HgN/A
6:58 PM63 °FSunny.No wind64%30.14 "HgN/A
5:58 PM68 °FSunny.2 mph43%30.12 "HgN/A
4:58 PM70 °FSunny.No wind40%30.11 "HgN/A
3:58 PM70 °FSunny.5 mph40%30.11 "HgN/A
2:58 PM70 °FSunny.5 mph40%30.12 "HgN/A
1:58 PM70 °FSunny.3 mph46%30.13 "HgN/A
12:58 PM68 °FSunny.2 mph49%30.16 "HgN/A
11:58 AM64 °FSunny.3 mph56%30.17 "HgN/A
10:58 AM59 °FSunny.1 mph68%30.19 "HgN/A
9:58 AM52 °FSunny.No wind82%30.21 "HgN/A
8:58 AM43 °FSunny.No wind100%30.22 "HgN/A
7:58 AM37 °FSunny.No wind100%30.22 "HgN/A
6:58 AM37 °FClear.No wind93%30.21 "HgN/A
5:58 AM39 °FClear.No wind93%30.21 "HgN/A
4:58 AM39 °FClear.No wind100%30.21 "HgN/A
3:58 AM39 °FClear.No wind100%30.21 "HgN/A
2:58 AM41 °FClear.No wind93%30.22 "HgN/A
Weather by CustomWeather, © 2016

See weather overviewHow to use our weather pages